Weather History for Madison, MN

Change the Weather History Date:

Monday, November 5, 2012

  Actual Average (KAQP) Record (KAQP)
Temperature  
Mean Temperature 37 °F -  
Max Temperature 39 °F 43 °F 73 °F (2001)
Min Temperature 35 °F 26 °F 12 °F (2003)
Degree Days  
Heating Degree Days 28    
Moisture  
Dew Point 34 °F    
Average Humidity 87    
Maximum Humidity 93    
Minimum Humidity 81    
Precipitation  
Precipitation 0.01 in - - ()
Sea Level Pressure  
Sea Level Pressure 30.09 in    
Wind  
Wind Speed 7 mph (NW)    
Max Wind Speed 13 mph    
Max Gust Speed 16 mph    
Visibility 9 miles    
Events Rain    
Averages and records for this station are not official NWS values.
T = Trace of Precipitation, MM = Missing Value Source: NWS Daily Summary

Daily Weather History Graph

Daily Weather History Graph

Search for Another Location

Airport:

Trip Planner

Search our weather history database for the weather conditions in past years. The results will help you decide how hot, cold, wet, or windy it might be!

Date:

Astronomy

Nov. 05, 2012 Rise Set
Actual Time 7:09 AM CST 5:06 PM CST
Civil Twilight 6:38 AM CST 5:37 PM CST
Nautical Twilight 6:03 AM CST 6:12 PM CST
Astronomical Twilight 5:29 AM CST 6:46 PM CST
Moon 10:45 PM CST (11/5) 12:29 PM CST (11/5)
Length of Visible Light 10h 59m
Length of Day
9h 57m
Waning Gibbous, 62% of the Moon is Illuminated
Nov 5
Waning Gibbous
Nov 6
Last Quarter
Nov 13
New
Nov 20
First Quarter
Nov 28
Full

Hourly Weather History & Observations

Time (CST) Temp. Windchill Dew Point Humidity Pressure Visibility Wind Dir Wind Speed Gust Speed Precip Events Conditions
12:14 AM 37.4 °F 31.4 °F 33.8 °F 87% 30.15 in 7.0 mi North 8.1 mph - N/A   Scattered Clouds
12:33 AM 37.4 °F 31.4 °F 33.8 °F 87% 30.15 in 7.0 mi North 8.1 mph - N/A   Clear
12:54 AM 37.4 °F 31.4 °F 33.8 °F 87% 30.15 in 7.0 mi North 8.1 mph - N/A   Clear
1:14 AM 37.4 °F 31.4 °F 33.8 °F 87% 30.15 in 7.0 mi North 8.1 mph - N/A   Clear
1:33 AM 37.4 °F 32.1 °F 33.8 °F 87% 30.16 in 7.0 mi North 6.9 mph - N/A   Clear
1:54 AM 37.4 °F 31.4 °F 33.8 °F 87% 30.16 in 7.0 mi North 8.1 mph - N/A   Clear
2:14 AM 37.4 °F 32.1 °F 33.8 °F 87% 30.16 in 7.0 mi North 6.9 mph - N/A   Clear
2:33 AM 37.4 °F 31.4 °F 33.8 °F 87% 30.16 in 7.0 mi North 8.1 mph - N/A   Clear
2:54 AM 37.4 °F 30.8 °F 33.8 °F 87% 30.16 in 7.0 mi North 9.2 mph - N/A   Clear
3:14 AM 37.4 °F 31.4 °F 33.8 °F 87% 30.16 in 5.0 mi NNW 8.1 mph - N/A   Drizzle
3:33 AM 37.4 °F 31.4 °F 33.8 °F 87% 30.16 in 10.0 mi North 8.1 mph - N/A   Clear
3:53 AM 35.6 °F 29.2 °F 33.8 °F 93% 30.16 in 10.0 mi North 8.1 mph - N/A   Scattered Clouds
4:14 AM 35.6 °F 29.2 °F 33.8 °F 93% 30.16 in 10.0 mi North 8.1 mph - N/A   Mostly Cloudy
4:33 AM 37.4 °F 31.4 °F 33.8 °F 87% 30.17 in 10.0 mi North 8.1 mph - N/A   Mostly Cloudy
4:53 AM 37.4 °F 31.4 °F 33.8 °F 87% 30.17 in 10.0 mi North 8.1 mph - N/A   Overcast
5:14 AM 37.4 °F 31.4 °F 33.8 °F 87% 30.18 in 10.0 mi NNW 8.1 mph - N/A   Overcast
5:33 AM 37.4 °F 30.8 °F 33.8 °F 87% 30.18 in 10.0 mi NNW 9.2 mph - N/A   Overcast
5:53 AM 37.4 °F 31.4 °F 33.8 °F 87% 30.18 in 10.0 mi NNW 8.1 mph - N/A   Overcast
6:14 AM 35.6 °F 29.2 °F 33.8 °F 93% 30.18 in 10.0 mi North 8.1 mph - N/A   Overcast
6:33 AM 35.6 °F 29.9 °F 33.8 °F 93% 30.17 in 10.0 mi North 6.9 mph - N/A   Mostly Cloudy
6:53 AM 35.6 °F 29.9 °F 32.0 °F 87% 30.17 in 10.0 mi NNE 6.9 mph - N/A   Mostly Cloudy
7:14 AM 35.6 °F 30.7 °F 33.8 °F 93% 30.17 in 10.0 mi NNE 5.8 mph - N/A   Scattered Clouds
7:33 AM 35.6 °F 29.9 °F 32.0 °F 87% 30.17 in 10.0 mi NNE 6.9 mph - N/A   Scattered Clouds
7:54 AM 35.6 °F 30.7 °F 33.8 °F 93% 30.17 in 7.0 mi NNE 5.8 mph - N/A   Scattered Clouds
8:14 AM 35.6 °F 29.9 °F 33.8 °F 93% 30.18 in 7.0 mi NNE 6.9 mph - N/A   Clear
8:33 AM 35.6 °F 31.7 °F 33.8 °F 93% 30.17 in 10.0 mi NNE 4.6 mph - N/A   Clear
8:54 AM 35.6 °F 30.7 °F 33.8 °F 93% 30.18 in 10.0 mi NNE 5.8 mph - N/A   Scattered Clouds
9:14 AM 35.6 °F 31.7 °F 33.8 °F 93% 30.18 in 10.0 mi NNE 4.6 mph - N/A   Scattered Clouds
9:33 AM 35.6 °F 31.7 °F 33.8 °F 93% 30.18 in 10.0 mi NNE 4.6 mph - N/A   Clear
9:54 AM 35.6 °F 30.7 °F 33.8 °F 93% 30.18 in 10.0 mi North 5.8 mph - N/A   Scattered Clouds
10:14 AM 37.4 °F 33.8 °F 33.8 °F 87% 30.18 in 10.0 mi North 4.6 mph - N/A   Scattered Clouds
10:33 AM 37.4 °F 33.8 °F 33.8 °F 87% 30.17 in 10.0 mi NNW 4.6 mph - N/A   Scattered Clouds
10:54 AM 37.4 °F 34.9 °F 33.8 °F 87% 30.17 in 10.0 mi North 3.5 mph - N/A   Scattered Clouds
11:14 AM 37.4 °F - 33.8 °F 87% 30.17 in 10.0 mi Calm Calm - N/A   Clear
11:33 AM 37.4 °F 34.9 °F 33.8 °F 87% 30.16 in 10.0 mi NNW 3.5 mph - N/A   Clear
11:54 AM 37.4 °F 34.9 °F 33.8 °F 87% 30.16 in 10.0 mi NNW 3.5 mph - N/A   Scattered Clouds
12:14 PM 37.4 °F 33.8 °F 33.8 °F 87% 30.15 in 10.0 mi NNW 4.6 mph - N/A   Scattered Clouds
12:33 PM 37.4 °F 34.9 °F 33.8 °F 87% 30.14 in 10.0 mi NNW 3.5 mph - N/A   Scattered Clouds
12:54 PM 37.4 °F - 33.8 °F 87% 30.12 in 10.0 mi Calm Calm - N/A   Scattered Clouds
1:13 PM 37.4 °F - 33.8 °F 87% 30.11 in 10.0 mi Calm Calm - N/A   Scattered Clouds
1:34 PM 39.2 °F - 33.8 °F 81% 30.11 in 10.0 mi Calm Calm - N/A   Clear
1:54 PM 39.2 °F - 33.8 °F 81% 30.10 in 10.0 mi Calm Calm - N/A   Clear
2:13 PM 39.2 °F - 33.8 °F 81% 30.09 in 10.0 mi Calm Calm - N/A   Scattered Clouds
2:34 PM 39.2 °F - 33.8 °F 81% 30.08 in 10.0 mi Calm Calm - N/A   Scattered Clouds
2:54 PM 39.2 °F 35.9 °F 33.8 °F 81% 30.07 in 10.0 mi South 4.6 mph - N/A   Scattered Clouds
3:13 PM 39.2 °F 35.9 °F 33.8 °F 81% 30.07 in 7.0 mi South 4.6 mph - N/A   Scattered Clouds
3:54 PM 39.2 °F 35.0 °F 33.8 °F 81% 30.06 in 4.0 mi South 5.8 mph - N/A   Haze
4:13 PM 39.2 °F 35.9 °F 33.8 °F 81% 30.06 in 4.0 mi South 4.6 mph - N/A   Haze
4:34 PM 39.2 °F 35.9 °F 33.8 °F 81% 30.06 in 4.0 mi South 4.6 mph - N/A   Haze
4:54 PM 37.4 °F 32.8 °F 33.8 °F 87% 30.05 in 4.0 mi South 5.8 mph - N/A   Clear
5:13 PM 37.4 °F 33.8 °F 33.8 °F 87% 30.03 in 5.0 mi SSE 4.6 mph - N/A   Clear
5:33 PM 35.6 °F 30.7 °F 33.8 °F 93% 30.03 in 4.0 mi South 5.8 mph - N/A   Clear
5:54 PM 35.6 °F 31.7 °F 33.8 °F 93% 30.04 in 4.0 mi SSW 4.6 mph - N/A   Scattered Clouds
6:13 PM 37.4 °F 32.8 °F 33.8 °F 87% 30.03 in 5.0 mi WSW 5.8 mph - N/A   Scattered Clouds
6:33 PM 37.4 °F 32.1 °F 33.8 °F 87% 30.02 in 10.0 mi SW 6.9 mph - N/A   Clear
6:54 PM 37.4 °F 32.8 °F 32.0 °F 81% 30.02 in 10.0 mi WSW 5.8 mph - N/A   Clear
7:13 PM 35.6 °F 30.7 °F 32.0 °F 87% 30.01 in 10.0 mi WSW 5.8 mph - N/A   Clear
7:33 PM 35.6 °F 29.9 °F 32.0 °F 87% 30.00 in 10.0 mi SW 6.9 mph - N/A   Clear
7:54 PM 35.6 °F 29.2 °F 32.0 °F 87% 29.98 in 10.0 mi SSW 8.1 mph - N/A   Clear
8:13 PM 35.6 °F 29.2 °F 32.0 °F 87% 29.97 in 10.0 mi South 8.1 mph - N/A   Clear
8:33 PM 37.4 °F 30.8 °F 32.0 °F 81% 29.95 in 10.0 mi South 9.2 mph - N/A   Scattered Clouds
8:54 PM 37.4 °F 30.8 °F 32.0 °F 81% 29.95 in 10.0 mi South 9.2 mph - N/A   Scattered Clouds
9:13 PM 37.4 °F 29.3 °F 32.0 °F 81% 29.92 in 10.0 mi South 12.7 mph - N/A   Scattered Clouds
9:33 PM 37.4 °F 29.3 °F 32.0 °F 81% 29.91 in 10.0 mi South 12.7 mph - N/A   Mostly Cloudy
9:54 PM 37.4 °F 30.3 °F 33.8 °F 87% 29.90 in 10.0 mi South 10.4 mph - N/A   Mostly Cloudy
10:13 PM 37.4 °F 30.3 °F 33.8 °F 87% 29.89 in 10.0 mi South 10.4 mph - N/A   Scattered Clouds
10:33 PM 37.4 °F 29.3 °F 33.8 °F 87% 29.89 in 7.0 mi SSW 12.7 mph 16.1 mph N/A Rain Light Rain
10:54 PM 37.4 °F 30.8 °F 33.8 °F 87% 29.88 in 7.0 mi SSW 9.2 mph - N/A Rain Light Rain
11:13 PM 37.4 °F 30.8 °F 35.6 °F 93% 29.87 in 7.0 mi South 9.2 mph - 0.01 in Rain Light Rain
11:33 PM 37.4 °F 29.3 °F 35.6 °F 93% 29.85 in 7.0 mi South 12.7 mph - 0.01 in   Drizzle
11:54 PM 37.4 °F 30.3 °F 35.6 °F 93% 29.83 in 7.0 mi South 10.4 mph - 0.01 in Rain Light Rain